TimeCDT,TemperatureF,Dew PointF,Humidity,Sea Level PressureIn,VisibilityMPH,Wind Direction,Wind SpeedMPH,Gust SpeedMPH,PrecipitationIn,Events,Conditions,WindDirDegrees,DateUTC
12:13 AM,69.8,64.4,83,29.90,8.0,NE,4.6,-,0.00,Thunderstorm,Overcast,50,2013-09-15 05:13:00
12:37 AM,69.8,64.4,83,29.91,8.0,ENE,9.2,-,0.00,,Overcast,70,2013-09-15 05:37:00
12:53 AM,69.1,64.9,87,29.87,7.0,ENE,6.9,-,0.01,Rain,Light Rain,60,2013-09-15 05:53:00
1:53 AM,68.0,64.0,87,29.87,8.0,East,11.5,-,0.00,,Overcast,90,2013-09-15 06:53:00
2:11 AM,66.2,64.4,94,29.93,7.0,East,11.5,-,0.01,Rain,Light Rain,80,2013-09-15 07:11:00
2:53 AM,66.0,61.0,84,29.88,10.0,East,6.9,-,0.01,,Overcast,90,2013-09-15 07:53:00
3:03 AM,66.2,60.8,83,29.94,10.0,ESE,6.9,-,N/A,Thunderstorm,Overcast,110,2013-09-15 08:03:00
3:21 AM,66.2,60.8,83,29.96,10.0,West,6.9,-,N/A,Thunderstorm,Thunderstorm,270,2013-09-15 08:21:00
3:37 AM,64.4,62.6,94,29.97,1.8,WNW,9.2,-,0.14,Rain,Heavy Rain,300,2013-09-15 08:37:00
3:46 AM,64.4,62.6,94,29.96,0.8,NNE,9.2,-,0.41,Rain,Heavy Rain,20,2013-09-15 08:46:00
3:50 AM,62.6,62.6,100,29.95,1.0,North,9.2,-,0.44,Rain-Thunderstorm,Heavy Thunderstorms and Rain,350,2013-09-15 08:50:00
3:53 AM,64.0,62.1,93,29.89,1.8,North,6.9,-,0.44,Rain-Thunderstorm,Heavy Thunderstorms and Rain,360,2013-09-15 08:53:00
3:56 AM,64.4,62.6,94,29.95,3.0,North,10.4,-,0.00,Rain-Thunderstorm,Light Thunderstorms and Rain,350,2013-09-15 08:56:00
4:11 AM,64.4,62.6,94,29.94,8.0,North,4.6,-,0.01,Rain,Light Rain,10,2013-09-15 09:11:00
4:53 AM,64.0,62.1,93,29.88,7.0,SSE,3.5,-,0.01,,Clear,160,2013-09-15 09:53:00
5:53 AM,64.0,62.1,93,29.88,8.0,NNW,3.5,-,N/A,,Clear,340,2013-09-15 10:53:00
6:53 AM,64.0,61.0,90,29.91,8.0,Calm,Calm,-,N/A,,Partly Cloudy,0,2013-09-15 11:53:00
7:53 AM,64.0,62.1,93,29.96,5.0,NNE,9.2,-,N/A,,Mostly Cloudy,20,2013-09-15 12:53:00
8:35 AM,64.4,62.6,94,30.03,8.0,NNE,11.5,-,N/A,,Overcast,20,2013-09-15 13:35:00
8:53 AM,64.0,61.0,90,29.99,9.0,NNE,16.1,24.2,N/A,,Overcast,20,2013-09-15 13:53:00
9:22 AM,64.4,60.8,88,30.06,10.0,NE,15.0,-,N/A,,Overcast,40,2013-09-15 14:22:00
9:46 AM,62.6,59.0,88,30.07,10.0,NNE,21.9,26.5,N/A,,Overcast,30,2013-09-15 14:46:00
9:53 AM,63.0,59.0,87,30.03,10.0,NE,19.6,25.3,N/A,,Overcast,40,2013-09-15 14:53:00
10:34 AM,62.6,57.2,82,30.10,10.0,NE,20.7,-,N/A,,Overcast,40,2013-09-15 15:34:00
10:53 AM,63.0,57.9,84,30.06,10.0,NE,23.0,27.6,N/A,,Overcast,50,2013-09-15 15:53:00
11:09 AM,62.6,55.4,77,30.12,10.0,NNE,19.6,-,N/A,,Overcast,30,2013-09-15 16:09:00
11:34 AM,62.6,55.4,77,30.14,10.0,NE,17.3,-,N/A,,Overcast,50,2013-09-15 16:34:00
11:53 AM,63.0,55.9,78,30.09,10.0,NE,17.3,25.3,N/A,,Overcast,50,2013-09-15 16:53:00
12:53 PM,63.0,55.0,75,30.11,10.0,NE,20.7,-,N/A,,Overcast,40,2013-09-15 17:53:00
1:53 PM,61.0,54.0,78,30.14,10.0,NNE,17.3,-,N/A,,Overcast,30,2013-09-15 18:53:00
2:53 PM,62.1,54.0,75,30.14,10.0,NNE,16.1,-,N/A,,Overcast,30,2013-09-15 19:53:00
3:53 PM,63.0,54.0,72,30.16,10.0,NNE,13.8,-,N/A,,Overcast,30,2013-09-15 20:53:00
4:53 PM,63.0,54.0,72,30.16,10.0,NE,13.8,-,N/A,,Overcast,40,2013-09-15 21:53:00
5:36 PM,64.4,53.6,68,30.20,10.0,NE,10.4,-,N/A,,Overcast,50,2013-09-15 22:36:00
5:53 PM,64.0,55.0,73,30.17,10.0,NE,9.2,-,N/A,,Overcast,50,2013-09-15 22:53:00
6:53 PM,63.0,54.0,72,30.17,10.0,NNE,9.2,-,N/A,,Overcast,30,2013-09-15 23:53:00
7:53 PM,62.1,55.0,78,30.18,10.0,North,5.8,-,N/A,,Overcast,360,2013-09-16 00:53:00
8:53 PM,61.0,55.9,83,30.19,10.0,Calm,Calm,-,N/A,,Overcast,0,2013-09-16 01:53:00
9:53 PM,61.0,57.0,87,30.22,10.0,Calm,Calm,-,N/A,,Overcast,0,2013-09-16 02:53:00
10:53 PM,61.0,57.0,87,30.22,10.0,NE,4.6,-,N/A,,Overcast,50,2013-09-16 03:53:00
11:11 PM,60.8,57.2,88,30.26,10.0,ENE,3.5,-,N/A,,Overcast,60,2013-09-16 04:11:00
11:53 PM,62.1,54.0,75,30.23,10.0,ENE,12.7,21.9,N/A,,Overcast,70,2013-09-16 04:53:00